Deering, AK

3:58 AM AKDT on July 29, 2017 (GMT -0800)
Deering (New)

Weather History for PADE - December, 2012

Change the Weather History Date:

Wednesday, December 19, 2012

  Actual Average (PAOT) Record (PAOT)
Temperature  
Mean Temperature -19 °F -  
Max Temperature -9 °F 11 °F 34 °F (1998)
Min Temperature -29 °F -2 °F -38 °F (1957)
Degree Days  
Heating Degree Days 84    
Moisture  
Dew Point -28 °F    
Average Humidity 72    
Maximum Humidity 81    
Minimum Humidity 63    
Precipitation  
Precipitation 0.00 in - - ()
Sea Level Pressure  
Sea Level Pressure 30.37 in    
Wind  
Wind Speed 4 mph (SW)    
Max Wind Speed 9 mph    
Max Gust Speed -    
Visibility 10 miles    
Events      
Averages and records for this station are not official NWS values.
T = Trace of Precipitation, MM = Missing Value Source: NWS Daily Summary

Daily Weather History Graph

Daily Weather History Graph

Search for Another Location

Airport or City:

Trip Planner

Search our weather history database for the weather conditions in past years. The results will help you decide how hot, cold, wet, or windy it might be!

Date:

Astronomy

Dec. 19, 2012 Rise Set
Actual Time 12:27 PM AKST 3:10 PM AKST
Civil Twilight 10:44 AM AKST 4:52 PM AKST
Nautical Twilight 9:27 AM AKST 6:09 PM AKST
Astronomical Twilight 8:22 AM AKST 7:15 PM AKST
Moon 1:11 PM AKST (12/19) 1:05 AM AKST (12/19)
Length of Visible Light 6h 07m
Length of Day
2h 43m
Waxing Crescent, 46% of the Moon is Illuminated
Dec 19
Waxing Crescent
Dec 19
First Quarter
Dec 28
Full
Jan 4
Last Quarter
Jan 11
New

Hourly Weather History & Observations

Time (AKST) Temp. Windchill Dew Point Humidity Pressure Visibility Wind Dir Wind Speed Gust Speed Precip Events Conditions
12:53 AM -18.9 °F -37.2 °F -25.1 °F 74% 30.19 in 10.0 mi SSW 8.1 mph - N/A   Clear
1:53 AM -20.9 °F -38.1 °F -27.9 °F 70% 30.22 in 10.0 mi SW 6.9 mph - N/A   Clear
3:53 AM -29.0 °F - -35.0 °F 73% 30.27 in 10.0 mi Calm Calm - N/A   Clear
4:53 AM -26.0 °F - -32.1 °F 73% 30.29 in 10.0 mi Calm Calm - N/A   Clear
5:53 AM -27.0 °F -45.5 °F -33.0 °F 73% 30.30 in 10.0 mi SW 6.9 mph - N/A   Clear
6:53 AM -26.0 °F - -32.1 °F 73% 30.32 in 10.0 mi Calm Calm - N/A   Clear
7:53 AM -26.0 °F - -31.0 °F 77% 30.32 in 10.0 mi Calm Calm - N/A   Clear
8:53 AM -25.1 °F - -33.0 °F 66% 30.34 in 9.0 mi Calm Calm - N/A   Clear
9:53 AM -26.0 °F -37.5 °F -32.1 °F 73% 30.35 in 10.0 mi WNW 3.5 mph - N/A   Clear
10:53 AM -22.0 °F -33.0 °F -29.0 °F 70% 30.37 in 10.0 mi SW 3.5 mph - N/A   Clear
11:53 AM -27.0 °F - -32.1 °F 77% 30.38 in 10.0 mi Calm Calm - N/A   Clear
12:53 PM -25.1 °F -36.5 °F -33.0 °F 66% 30.38 in 10.0 mi WSW 3.5 mph - N/A   Clear
1:53 PM -18.9 °F -34.0 °F -27.0 °F 66% 30.41 in 10.0 mi South 5.8 mph - N/A   Clear
2:53 PM -20.9 °F -31.7 °F -29.9 °F 63% 30.42 in 10.0 mi SW 3.5 mph - N/A   Clear
3:53 PM -22.0 °F -35.6 °F -29.0 °F 70% 30.41 in 10.0 mi South 4.6 mph - N/A   Clear
4:53 PM -14.1 °F - -23.1 °F 64% 30.42 in 10.0 mi Calm Calm - N/A   Clear
5:53 PM -20.9 °F -31.7 °F -27.0 °F 73% 30.43 in 10.0 mi WNW 3.5 mph - N/A   Clear
6:53 PM -9.9 °F -27.5 °F -18.0 °F 68% 30.44 in 10.0 mi SE 9.2 mph - N/A   Clear
7:53 PM -18.0 °F - -24.0 °F 74% 30.45 in 10.0 mi Calm Calm - N/A   Partly Cloudy
8:53 PM -15.0 °F - -20.0 °F 78% 30.45 in 10.0 mi Calm Calm - N/A   Clear
9:53 PM -16.1 °F - -23.1 °F 71% 30.47 in 10.0 mi Calm Calm - N/A   Clear
10:53 PM -15.0 °F - -20.0 °F 78% 30.47 in 10.0 mi Calm Calm - N/A   Clear
11:53 PM -18.9 °F - -23.1 °F 81% 30.47 in 10.0 mi Calm Calm - N/A   Clear